Regional Weather Roundup
Issued by NWS

Home | Current Version | Previous Version | Graphics & Text | Print | Product List | Glossary On
Versions: 1 2 3 4 5 6 7 8 9 10 11 12 13 14 15 16 17 18 19 20 21 22 23 24 25 26 27 28
000
ASUS45 KCYS 191910
RWRWY

WYOMING REGIONAL WEATHER ROUNDUP
NATIONAL WEATHER SERVICE CHEYENNE WY
100 PM MDT SAT AUG 19 2017

NOTE:  "FAIR" INDICATES FEW OR NO CLOUDS BELOW 12,000 FEET
WITH NO SIGNIFICANT WEATHER AND/OR OBSTRUCTIONS TO VISIBILITY.

WYZ001-192000-
YELLOWSTONE NATIONAL PARK

CITY           SKY/WX    TMP DP  RH WIND       PRES   REMARKS
LK YELLOWSTONE   N/A     65  31  28 VRB3      30.27F
W YELLOWSTONE  NOT AVBL

$$
WYZ002>013-054>058-071-098>099-192000-
NORTHERN WYOMING

CITY           SKY/WX    TMP DP  RH WIND       PRES   REMARKS
JACKSON        FAIR      77  33  20 SW10G17   30.18F
CODY           FAIR      78  38  23 NE12      30.04F
GREYBULL       FAIR      86  32  14 VRB3      29.94F
WORLAND        FAIR      86  37  17 W6        29.95F
SHERIDAN       CLOUDY    86  32  14 N9        29.98S HAZE
BUFFALO        CLOUDY    84  26  12 N13G22    30.04S HAZE
GILLETTE       FAIR      87  28  12 N12G20    29.98S
HULETT         FAIR      86  34  15 NW7       29.98S
NEWCASTLE      FAIR      88  32  13 W6        29.95F

$$
WYZ014>020-022>026-101>103-192000-
CENTRAL WYOMING

CITY           SKY/WX    TMP DP  RH WIND       PRES   REMARKS
BIG PINEY      FAIR      77  25  14 VRB6      30.23F
PINEDALE       FAIR      75  23  14 N7        30.24F
DUBOIS         FAIR      75  19  12 W20G31    30.18F
LANDER           N/A    N/A N/A N/A MISG      30.07F
RIVERTON       FAIR      82  36  19 E9        30.06F
CASPER         FAIR      86  30  13 SW14      30.04F
DOUGLAS        FAIR      88  32  13 NW7       30.02F

$$
WYZ021-027>030-104>119-192000-
SOUTHERN WYOMING

CITY           SKY/WX    TMP DP  RH WIND       PRES   REMARKS
EVANSTON       FAIR      81  26  13 W12G24    30.27F
FORT BRIDGER   CLEAR     82  23  11 NW13G24   30.28F
ROCK SPRINGS   FAIR      80  21  11 W15G22    30.23F
RAWLINS        FAIR      80  22  11 W15       30.20F
SARATOGA       FAIR      79  23  12 W17G28    30.24F
LARAMIE        FAIR      80  22  11 W21G26    30.21S
CHEYENNE       FAIR      86  30  13 W22       30.12F
TORRINGTON     FAIR      91  31  11 N8        29.95F
PINE BLUFFS    FAIR      88  32  13 W7G18     30.05S

$$




USA.gov is the U.S. government's official web portal to all federal, state and local government web resources and services.